Regional Weather Roundup
Issued by NWS

Home | Current Version | Previous Version | Text Only | Print | Product List | Glossary On
Versions: 1 2 3 4 5 6 7 8 9 10 11 12 13 14 15 16 17 18 19 20 21 22 23 24 25 26 27 28 29 30 31 32 33 34 35 36 37 38 39 40 41 42 43 44 45 46 47 48 49 50
000
ASUS43 KLSX 220759
RWRMO

WEATHER SUMMARY FOR MISSOURI
NATIONAL WEATHER SERVICE SPRINGFIELD MO
200 AM CST SAT NOV 22 2014

NOTE: "FAIR" INDICATES FEW OR NO CLOUDS BELOW 12,000 FEET WITH NO
       SIGNIFICANT WEATHER AND/OR OBSTRUCTIONS TO VISIBILITY.
       CURRENT SKY AND/OR WEATHER CONDITIONS ARE NOT AVAILABLE FOR
       CHILLICOTHE AND FARMINGTON.

MOZ001>031-035>038-043-044-053-054-220900-
...NORTHERN AND WESTERN MISSOURI...

CITY           SKY/WX    TMP DP  RH WIND       PRES   REMARKS
KANSAS CTY INT CLOUDY    50  49  96 S15       30.01S FOG
KANSAS C DTWN  CLOUDY    51  48  89 S8        30.02F FOG
ST JOSEPH      CLOUDY    42  39  89 CALM      30.00F
CHILLICOTHE      N/A     47  43  86 S8        30.04F
KIRKSVILLE     CLOUDY    44  40  85 S9        30.05F

$$
MOZ066>068-077>081-088>096-101>105-220900-
...SOUTHWEST MISSOURI...

CITY           SKY/WX    TMP DP  RH WIND       PRES   REMARKS
SPRINGFIELD    CLOUDY    48  44  86 S14       30.12S
JOPLIN         CLOUDY    56  50  80 MISG      30.09S

$$
MOZ032>034-039>042-045>050-055>058-069>072-220900-
...CENTRAL MISSOURI...

CITY           SKY/WX    TMP DP  RH WIND       PRES   REMARKS
COLUMBIA       CLOUDY    47  43  86 S13       30.11S
JEFFERSON CITY CLOUDY    49  43  80 S5        30.12F
ROLLA          CLOUDY    45  41  86 S16       30.13S
SEDALIA        LGT RAIN  51  47  86 S13G22    30.09S
WARRENSBURG    CLOUDY    46  45  93 S12G17    30.06F
OSAGE BEACH    CLOUDY    50  43  76 S12       30.12F

$$
MOZ051-052-059>065-220900-
...EAST CENTRAL MISSOURI...

CITY           SKY/WX    TMP DP  RH WIND       PRES   REMARKS
ST LOUIS INTL  CLOUDY    43  37  79 S7        30.17F
SPIRIT OF STL  MOCLDY    43  38  82 CALM      30.15F
ST CHARLES     CLOUDY    40  38  93 E3        30.17S FOG

$$
MOZ072>076-082>087-097>100-106>115-220900-
...SOUTH CENTRAL AND SOUTHEAST MISSOURI...

CITY           SKY/WX    TMP DP  RH WIND       PRES   REMARKS
CAPE GIRARDEAU MOCLDY    46  38  73 S12       30.23F
FARMINGTON     CLEAR     39  36  87 SE10      30.21S
POPLAR BLUFF   CLOUDY    40  37  89 CALM      30.23S FOG
WEST PLAINS    CLOUDY    44  39  82 S9        30.20S

$$



USA.gov is the U.S. government's official web portal to all federal, state and local government web resources and services.